Year,Month,Day,Hour,Minute,Value (Times are PST for temperature in C)
2011,09,03,00,00,12.80
2011,09,03,00,01,12.80
2011,09,03,00,02,12.80
2011,09,03,00,03,12.80
2011,09,03,00,04,12.80
2011,09,03,00,05,12.80
2011,09,03,00,06,12.80
2011,09,03,00,07,12.80
2011,09,03,00,08,12.80
2011,09,03,00,09,12.70
2011,09,03,00,10,12.70
2011,09,03,00,11,12.70
2011,09,03,00,12,12.60
2011,09,03,00,13,12.60
2011,09,03,00,14,12.60
2011,09,03,00,15,12.60
2011,09,03,00,16,12.60
2011,09,03,00,17,12.50
2011,09,03,00,18,12.50
2011,09,03,00,19,12.50
2011,09,03,00,20,12.50
2011,09,03,00,21,12.50
2011,09,03,00,22,12.40
2011,09,03,00,23,12.40
2011,09,03,00,24,12.40
2011,09,03,00,25,12.40
2011,09,03,00,26,12.40
2011,09,03,00,27,12.40
2011,09,03,00,28,12.40
2011,09,03,00,29,12.40
2011,09,03,00,30,12.30
2011,09,03,00,31,12.30
2011,09,03,00,32,12.30
2011,09,03,00,33,12.30
2011,09,03,00,34,12.30
2011,09,03,00,35,12.30
2011,09,03,00,36,12.30
2011,09,03,00,37,12.30
2011,09,03,00,38,12.30
2011,09,03,00,39,12.30
2011,09,03,00,40,12.30
2011,09,03,00,41,12.30
2011,09,03,00,42,12.30
2011,09,03,00,43,12.30
2011,09,03,00,44,12.30
2011,09,03,00,45,12.30
2011,09,03,00,46,12.30
2011,09,03,00,47,12.40
2011,09,03,00,48,12.40
2011,09,03,00,49,12.40
2011,09,03,00,50,12.40
2011,09,03,00,51,12.40
2011,09,03,00,52,12.40
2011,09,03,00,53,12.40
2011,09,03,00,54,12.40
2011,09,03,00,55,12.40
2011,09,03,00,56,12.50
2011,09,03,00,57,12.50
2011,09,03,00,58,12.50
2011,09,03,00,59,12.50
2011,09,03,01,00,12.50
2011,09,03,01,01,12.60
2011,09,03,01,02,12.60
2011,09,03,01,03,12.60
2011,09,03,01,04,12.60
2011,09,03,01,05,12.60
2011,09,03,01,06,12.60
2011,09,03,01,07,12.60
2011,09,03,01,08,12.60
2011,09,03,01,09,12.50
2011,09,03,01,10,12.50
2011,09,03,01,11,12.50
2011,09,03,01,12,12.40
2011,09,03,01,13,12.40
2011,09,03,01,14,12.30
2011,09,03,01,15,12.30
2011,09,03,01,16,12.30
2011,09,03,01,17,12.30
2011,09,03,01,18,12.20
2011,09,03,01,19,12.20
2011,09,03,01,20,12.20
2011,09,03,01,21,12.10
2011,09,03,01,22,12.10
2011,09,03,01,23,12.10
2011,09,03,01,24,12.10
2011,09,03,01,25,12.00
2011,09,03,01,26,12.00
2011,09,03,01,27,12.00
2011,09,03,01,28,11.90
2011,09,03,01,29,11.90
2011,09,03,01,30,11.90
2011,09,03,01,31,11.90
2011,09,03,01,32,11.90
2011,09,03,01,33,11.80
2011,09,03,01,34,11.80
2011,09,03,01,35,11.80
2011,09,03,01,36,11.80
2011,09,03,01,37,11.80
2011,09,03,01,38,11.80
2011,09,03,01,39,11.80
2011,09,03,01,40,11.80
2011,09,03,01,41,11.70
2011,09,03,01,42,11.70
2011,09,03,01,43,11.70
2011,09,03,01,44,11.60
2011,09,03,01,45,11.60
2011,09,03,01,46,11.60
2011,09,03,01,47,11.60
2011,09,03,01,48,11.60
2011,09,03,01,49,11.60
2011,09,03,01,50,11.50
2011,09,03,01,51,11.40
2011,09,03,01,52,11.40
2011,09,03,01,53,11.40
2011,09,03,01,54,11.40
2011,09,03,01,55,11.40
2011,09,03,01,56,11.40
2011,09,03,01,57,11.40
2011,09,03,01,58,11.40
2011,09,03,01,59,11.40
2011,09,03,02,00,11.40
2011,09,03,02,01,11.40
2011,09,03,02,02,11.40
2011,09,03,02,03,11.40
2011,09,03,02,04,11.30
2011,09,03,02,05,11.30
2011,09,03,02,06,11.30
2011,09,03,02,07,11.30
2011,09,03,02,08,11.30
2011,09,03,02,09,11.30
2011,09,03,02,10,11.30
2011,09,03,02,11,11.30
2011,09,03,02,12,11.30
2011,09,03,02,13,11.30
2011,09,03,02,14,11.30
2011,09,03,02,15,11.30
2011,09,03,02,16,11.20
2011,09,03,02,17,11.20
2011,09,03,02,18,11.20
2011,09,03,02,19,11.10
2011,09,03,02,20,11.10
2011,09,03,02,21,11.10
2011,09,03,02,22,11.10
2011,09,03,02,23,11.10
2011,09,03,02,24,11.10
2011,09,03,02,25,11.10
2011,09,03,02,26,11.10
2011,09,03,02,27,11.20
2011,09,03,02,28,11.20
2011,09,03,02,29,11.10
2011,09,03,02,30,11.10
2011,09,03,02,31,11.10
2011,09,03,02,32,11.20
2011,09,03,02,33,11.20
2011,09,03,02,34,11.10
2011,09,03,02,35,11.10
2011,09,03,02,36,11.10
2011,09,03,02,37,11.10
2011,09,03,02,38,11.10
2011,09,03,02,39,11.10
2011,09,03,02,40,11.10
2011,09,03,02,41,11.10
2011,09,03,02,42,11.10
2011,09,03,02,43,11.10
2011,09,03,02,44,11.10
2011,09,03,02,45,11.10
2011,09,03,02,46,11.10
2011,09,03,02,47,11.10
2011,09,03,02,48,11.00
2011,09,03,02,49,10.90
2011,09,03,02,50,10.90
2011,09,03,02,51,10.90
2011,09,03,02,52,10.90
2011,09,03,02,53,10.90
2011,09,03,02,54,10.90
2011,09,03,02,55,10.90
2011,09,03,02,56,10.90
2011,09,03,02,57,10.90
2011,09,03,02,58,10.90
2011,09,03,02,59,10.90
2011,09,03,03,00,10.90
2011,09,03,03,01,10.90
2011,09,03,03,02,10.90
2011,09,03,03,03,10.90
2011,09,03,03,04,10.90
2011,09,03,03,05,10.90
2011,09,03,03,06,10.90
2011,09,03,03,07,10.90
2011,09,03,03,08,10.90
2011,09,03,03,09,10.90
2011,09,03,03,10,10.90
2011,09,03,03,11,10.90
2011,09,03,03,12,10.90
2011,09,03,03,13,10.90
2011,09,03,03,14,10.90
2011,09,03,03,15,11.00
2011,09,03,03,16,11.10
2011,09,03,03,17,11.10
2011,09,03,03,18,11.10
2011,09,03,03,19,11.10
2011,09,03,03,20,11.10
2011,09,03,03,21,11.10
2011,09,03,03,22,11.10
2011,09,03,03,23,11.10
2011,09,03,03,24,11.10
2011,09,03,03,25,11.10
2011,09,03,03,26,11.10
2011,09,03,03,27,11.10
2011,09,03,03,28,11.10
2011,09,03,03,29,11.10
2011,09,03,03,30,11.10
2011,09,03,03,31,11.00
2011,09,03,03,32,10.90
2011,09,03,03,33,10.90
2011,09,03,03,34,10.90
2011,09,03,03,35,10.90
2011,09,03,03,36,10.90
2011,09,03,03,37,10.90
2011,09,03,03,38,10.90
2011,09,03,03,39,10.90
2011,09,03,03,40,10.80
2011,09,03,03,41,10.80
2011,09,03,03,42,10.80
2011,09,03,03,43,10.70
2011,09,03,03,44,10.70
2011,09,03,03,45,10.70
2011,09,03,03,46,10.70
2011,09,03,03,47,10.60
2011,09,03,03,48,10.60
2011,09,03,03,49,10.60
2011,09,03,03,50,10.60
2011,09,03,03,51,10.60
2011,09,03,03,52,10.60
2011,09,03,03,53,10.60
2011,09,03,03,54,10.60
2011,09,03,03,55,10.60
2011,09,03,03,56,10.60
2011,09,03,03,57,10.60
2011,09,03,03,58,10.60
2011,09,03,03,59,10.60
2011,09,03,04,00,10.60
2011,09,03,04,01,10.60
2011,09,03,04,02,10.70
2011,09,03,04,03,10.70
2011,09,03,04,04,10.80
2011,09,03,04,05,10.80
2011,09,03,04,06,10.80
2011,09,03,04,07,10.90
2011,09,03,04,08,10.90
2011,09,03,04,09,10.90
2011,09,03,04,10,11.10
2011,09,03,04,11,11.10
2011,09,03,04,12,11.10
2011,09,03,04,13,11.10
2011,09,03,04,14,11.10
2011,09,03,04,15,11.10
2011,09,03,04,16,11.00
2011,09,03,04,17,10.90
2011,09,03,04,18,10.90
2011,09,03,04,19,10.90
2011,09,03,04,20,10.90
2011,09,03,04,21,10.90
2011,09,03,04,22,10.80
2011,09,03,04,23,10.80
2011,09,03,04,24,10.80
2011,09,03,04,25,10.80
2011,09,03,04,26,10.80
2011,09,03,04,27,10.80
2011,09,03,04,28,10.80
2011,09,03,04,29,10.90
2011,09,03,04,30,10.90
2011,09,03,04,31,10.90
2011,09,03,04,32,11.00
2011,09,03,04,33,11.10
2011,09,03,04,34,11.20
2011,09,03,04,35,11.30
2011,09,03,04,36,11.40
2011,09,03,04,37,11.50
2011,09,03,04,38,11.70
2011,09,03,04,39,11.80
2011,09,03,04,40,11.90
2011,09,03,04,41,12.00
2011,09,03,04,42,12.10
2011,09,03,04,43,12.30
2011,09,03,04,44,12.40
2011,09,03,04,45,12.50
2011,09,03,04,46,12.60
2011,09,03,04,47,12.60
2011,09,03,04,48,12.70
2011,09,03,04,49,12.80
2011,09,03,04,50,12.90
2011,09,03,04,51,13.00
2011,09,03,04,52,13.00
2011,09,03,04,53,13.10
2011,09,03,04,54,13.20
2011,09,03,04,55,13.20
2011,09,03,04,56,13.30
2011,09,03,04,57,13.30
2011,09,03,04,58,13.30
2011,09,03,04,59,13.40
2011,09,03,05,00,13.40
2011,09,03,05,01,13.40
2011,09,03,05,02,13.40
2011,09,03,05,03,13.40
2011,09,03,05,04,13.40
2011,09,03,05,05,13.40
2011,09,03,05,06,13.50
2011,09,03,05,07,13.50
2011,09,03,05,08,13.50
2011,09,03,05,09,13.50
2011,09,03,05,10,13.60
2011,09,03,05,11,13.60
2011,09,03,05,12,13.60
2011,09,03,05,13,13.70
2011,09,03,05,14,13.70
2011,09,03,05,15,13.70
2011,09,03,05,16,13.70
2011,09,03,05,17,13.70
2011,09,03,05,18,13.70
2011,09,03,05,19,13.70
2011,09,03,05,20,13.70
2011,09,03,05,21,13.70
2011,09,03,05,22,13.70
2011,09,03,05,23,13.70
2011,09,03,05,24,13.70
2011,09,03,05,25,13.70
2011,09,03,05,26,13.70
2011,09,03,05,27,13.70
2011,09,03,05,28,13.70
2011,09,03,05,29,13.70
2011,09,03,05,30,13.70
2011,09,03,05,31,13.70
2011,09,03,05,32,13.60
2011,09,03,05,33,13.60
2011,09,03,05,34,13.60
2011,09,03,05,35,13.60
2011,09,03,05,36,13.50
2011,09,03,05,37,13.50
2011,09,03,05,38,13.50
2011,09,03,05,39,13.50
2011,09,03,05,40,13.50
2011,09,03,05,41,13.50
2011,09,03,05,42,13.50
2011,09,03,05,43,13.50
2011,09,03,05,44,13.50
2011,09,03,05,45,13.40
2011,09,03,05,46,13.50
2011,09,03,05,47,13.50
2011,09,03,05,48,13.50
2011,09,03,05,49,13.50
2011,09,03,05,50,13.50
2011,09,03,05,51,13.50
2011,09,03,05,52,13.50
2011,09,03,05,53,13.50
2011,09,03,05,54,13.50
2011,09,03,05,55,13.50
2011,09,03,05,56,13.60
2011,09,03,05,57,13.60
2011,09,03,05,58,13.60
2011,09,03,05,59,13.50
2011,09,03,06,00,13.50
2011,09,03,06,01,13.50
2011,09,03,06,02,13.50
2011,09,03,06,03,13.50
2011,09,03,06,04,13.50
2011,09,03,06,05,13.40
2011,09,03,06,06,13.40
2011,09,03,06,07,13.40
2011,09,03,06,08,13.40
2011,09,03,06,09,13.40
2011,09,03,06,10,13.30
2011,09,03,06,11,13.30
2011,09,03,06,12,13.30
2011,09,03,06,13,13.30
2011,09,03,06,14,13.30
2011,09,03,06,15,13.30
2011,09,03,06,16,13.30
2011,09,03,06,17,13.30
2011,09,03,06,18,13.30
2011,09,03,06,19,13.20
2011,09,03,06,20,13.20
2011,09,03,06,21,13.20
2011,09,03,06,22,13.10
2011,09,03,06,23,13.10
2011,09,03,06,24,13.10
2011,09,03,06,25,13.10
2011,09,03,06,26,13.10
2011,09,03,06,27,13.10
2011,09,03,06,28,13.10
2011,09,03,06,29,13.20
2011,09,03,06,30,13.20
2011,09,03,06,31,13.20
2011,09,03,06,32,13.20
2011,09,03,06,33,13.20
2011,09,03,06,34,13.20
2011,09,03,06,35,13.30
2011,09,03,06,36,13.30
2011,09,03,06,37,13.30
2011,09,03,06,38,13.30
2011,09,03,06,39,13.30
2011,09,03,06,40,13.30
2011,09,03,06,41,13.30
2011,09,03,06,42,13.30
2011,09,03,06,43,13.30
2011,09,03,06,44,13.30
2011,09,03,06,45,13.30
2011,09,03,06,46,13.30
2011,09,03,06,47,13.30
2011,09,03,06,48,13.30
2011,09,03,06,49,13.30
2011,09,03,06,50,13.30
2011,09,03,06,51,13.30
2011,09,03,06,52,13.30
2011,09,03,06,53,13.30
2011,09,03,06,54,13.30
2011,09,03,06,55,13.30
2011,09,03,06,56,13.30
2011,09,03,06,57,13.30
2011,09,03,06,58,13.30
2011,09,03,06,59,13.30
2011,09,03,07,00,13.20
2011,09,03,07,01,13.20
2011,09,03,07,02,13.20
2011,09,03,07,03,13.30
2011,09,03,07,04,13.30
2011,09,03,07,05,13.30
2011,09,03,07,06,13.30
2011,09,03,07,07,13.30
2011,09,03,07,08,13.30
2011,09,03,07,09,13.30
2011,09,03,07,10,13.40
2011,09,03,07,11,13.40
2011,09,03,07,12,13.40
2011,09,03,07,13,13.40
2011,09,03,07,14,13.50
2011,09,03,07,15,13.50
2011,09,03,07,16,13.50
2011,09,03,07,17,13.50
2011,09,03,07,18,13.60
2011,09,03,07,19,13.60
2011,09,03,07,20,13.60
2011,09,03,07,21,13.60
2011,09,03,07,22,13.70
2011,09,03,07,23,13.70
2011,09,03,07,24,13.70
2011,09,03,07,25,13.70
2011,09,03,07,26,13.70
2011,09,03,07,27,13.70
2011,09,03,07,28,13.70
2011,09,03,07,29,13.70
2011,09,03,07,30,13.80
2011,09,03,07,31,13.80
2011,09,03,07,32,13.80
2011,09,03,07,33,13.80
2011,09,03,07,34,13.80
2011,09,03,07,35,13.90
2011,09,03,07,36,13.90
2011,09,03,07,37,13.90
2011,09,03,07,38,13.90
2011,09,03,07,39,13.90
2011,09,03,07,40,13.90
2011,09,03,07,41,13.90
2011,09,03,07,42,13.90
2011,09,03,07,43,13.90
2011,09,03,07,44,14.00
2011,09,03,07,45,14.00
2011,09,03,07,46,14.00
2011,09,03,07,47,14.00
2011,09,03,07,48,14.00
2011,09,03,07,49,14.10
2011,09,03,07,50,14.10
2011,09,03,07,51,14.10
2011,09,03,07,52,14.10
2011,09,03,07,53,14.20
2011,09,03,07,54,14.20
2011,09,03,07,55,14.20
2011,09,03,07,56,14.20
2011,09,03,07,57,14.20
2011,09,03,07,58,14.20
2011,09,03,07,59,14.20
2011,09,03,08,00,14.20
2011,09,03,08,01,14.20
2011,09,03,08,02,14.30
2011,09,03,08,03,14.30
2011,09,03,08,04,14.30
2011,09,03,08,05,14.30
2011,09,03,08,06,14.30
2011,09,03,08,07,14.30
2011,09,03,08,08,14.30
2011,09,03,08,09,14.30
2011,09,03,08,10,14.30
2011,09,03,08,11,14.40
2011,09,03,08,12,14.40
2011,09,03,08,13,14.40
2011,09,03,08,14,14.40
2011,09,03,08,15,14.40
2011,09,03,08,16,14.40
2011,09,03,08,17,14.50
2011,09,03,08,18,14.50
2011,09,03,08,19,14.50
2011,09,03,08,20,14.60
2011,09,03,08,21,14.60
2011,09,03,08,22,14.60
2011,09,03,08,23,14.70
2011,09,03,08,24,14.70
2011,09,03,08,25,14.70
2011,09,03,08,26,14.70
2011,09,03,08,27,14.80
2011,09,03,08,28,14.80
2011,09,03,08,29,14.80
2011,09,03,08,30,14.80
2011,09,03,08,31,14.80
2011,09,03,08,32,14.80
2011,09,03,08,33,14.80
2011,09,03,08,34,14.80
2011,09,03,08,35,14.80
2011,09,03,08,36,14.80
2011,09,03,08,37,14.80
2011,09,03,08,38,14.80
2011,09,03,08,39,14.80
2011,09,03,08,40,14.80
2011,09,03,08,41,14.80
2011,09,03,08,42,14.80
2011,09,03,08,43,14.80
2011,09,03,08,44,14.80
2011,09,03,08,45,14.80
2011,09,03,08,46,14.80
2011,09,03,08,47,14.80
2011,09,03,08,48,14.80
2011,09,03,08,49,14.80
2011,09,03,08,50,14.80
2011,09,03,08,51,14.80
2011,09,03,08,52,14.80
2011,09,03,08,53,14.80
2011,09,03,08,54,14.90
2011,09,03,08,55,14.90
2011,09,03,08,56,14.90
2011,09,03,08,57,15.00
2011,09,03,08,58,15.00
2011,09,03,08,59,15.00
2011,09,03,09,00,15.00
2011,09,03,09,01,15.10
2011,09,03,09,02,15.10
2011,09,03,09,03,15.10
2011,09,03,09,04,15.20
2011,09,03,09,05,15.20
2011,09,03,09,06,15.20
2011,09,03,09,07,15.30
2011,09,03,09,08,15.30
2011,09,03,09,09,15.30
2011,09,03,09,10,15.30
2011,09,03,09,11,15.30
2011,09,03,09,12,15.30
2011,09,03,09,13,15.30
2011,09,03,09,14,15.30
2011,09,03,09,15,15.40
2011,09,03,09,16,15.30
2011,09,03,09,17,15.30
2011,09,03,09,18,15.30
2011,09,03,09,19,15.30
2011,09,03,09,20,15.40
2011,09,03,09,21,15.40
2011,09,03,09,22,15.40
2011,09,03,09,23,15.50
2011,09,03,09,24,15.50
2011,09,03,09,25,15.50
2011,09,03,09,26,15.60
2011,09,03,09,27,15.60
2011,09,03,09,28,15.70
2011,09,03,09,29,15.70
2011,09,03,09,30,15.70
2011,09,03,09,31,15.70
2011,09,03,09,32,15.80
2011,09,03,09,33,15.80
2011,09,03,09,34,15.80
2011,09,03,09,35,15.80
2011,09,03,09,36,15.80
2011,09,03,09,37,15.80
2011,09,03,09,38,15.90
2011,09,03,09,39,15.90
2011,09,03,09,40,15.90
2011,09,03,09,41,15.90
2011,09,03,09,42,15.90
2011,09,03,09,43,16.00
2011,09,03,09,44,16.00
2011,09,03,09,45,16.10
2011,09,03,09,46,16.10
2011,09,03,09,47,16.10
2011,09,03,09,48,16.10
2011,09,03,09,49,16.10
2011,09,03,09,50,16.10
2011,09,03,09,51,16.10
2011,09,03,09,52,16.10
2011,09,03,09,53,16.10
2011,09,03,09,54,16.10
2011,09,03,09,55,16.10
2011,09,03,09,56,16.10
2011,09,03,09,57,16.10
2011,09,03,09,58,16.10
2011,09,03,09,59,16.10
2011,09,03,10,00,16.10
2011,09,03,10,01,16.10
2011,09,03,10,02,16.10
2011,09,03,10,03,16.10
2011,09,03,10,04,16.10
2011,09,03,10,05,16.10
2011,09,03,10,06,16.10
2011,09,03,10,07,16.10
2011,09,03,10,08,16.10
2011,09,03,10,09,16.10
2011,09,03,10,10,16.10
2011,09,03,10,11,16.10
2011,09,03,10,12,16.20
2011,09,03,10,13,16.20
2011,09,03,10,14,16.20
2011,09,03,10,15,16.10
2011,09,03,10,16,16.20
2011,09,03,10,17,16.20
2011,09,03,10,18,16.30
2011,09,03,10,19,16.30
2011,09,03,10,20,16.30
2011,09,03,10,21,16.40
2011,09,03,10,22,16.40
2011,09,03,10,23,16.50
2011,09,03,10,24,16.60
2011,09,03,10,25,16.60
2011,09,03,10,26,16.60
2011,09,03,10,27,16.60
2011,09,03,10,28,16.60
2011,09,03,10,29,16.60
2011,09,03,10,30,16.60
2011,09,03,10,31,16.60
2011,09,03,10,32,16.60
2011,09,03,10,33,16.50
2011,09,03,10,34,16.40
2011,09,03,10,35,16.40
2011,09,03,10,36,16.40
2011,09,03,10,37,16.50
2011,09,03,10,38,16.60
2011,09,03,10,39,16.70
2011,09,03,10,40,16.70
2011,09,03,10,41,16.70
2011,09,03,10,42,16.70
2011,09,03,10,43,16.70
2011,09,03,10,44,16.70
2011,09,03,10,45,16.70
2011,09,03,10,46,16.70
2011,09,03,10,47,16.70
2011,09,03,10,48,16.70
2011,09,03,10,49,16.70
2011,09,03,10,50,16.70
2011,09,03,10,51,16.70
2011,09,03,10,52,16.70
2011,09,03,10,53,16.80
2011,09,03,10,54,16.80
2011,09,03,10,55,16.90
2011,09,03,10,56,17.00
2011,09,03,10,57,17.00
2011,09,03,10,58,17.00
2011,09,03,10,59,17.10
2011,09,03,11,00,17.10
2011,09,03,11,01,17.10
2011,09,03,11,02,17.10
2011,09,03,11,03,17.10
2011,09,03,11,04,17.10
2011,09,03,11,05,17.20
2011,09,03,11,06,17.30
2011,09,03,11,07,17.30
2011,09,03,11,08,17.30
2011,09,03,11,09,17.40
2011,09,03,11,10,17.30
2011,09,03,11,11,17.30
2011,09,03,11,12,17.30
2011,09,03,11,13,17.30
2011,09,03,11,14,17.20
2011,09,03,11,15,17.20
2011,09,03,11,16,17.10
2011,09,03,11,17,17.10
2011,09,03,11,18,17.10
2011,09,03,11,19,17.20
2011,09,03,11,20,17.20
2011,09,03,11,21,17.20
2011,09,03,11,22,17.30
2011,09,03,11,23,17.30
2011,09,03,11,24,17.40
2011,09,03,11,25,17.40
2011,09,03,11,26,17.40
2011,09,03,11,27,17.40
2011,09,03,11,28,17.40
2011,09,03,11,29,17.40
2011,09,03,11,30,17.40
2011,09,03,11,31,17.40
2011,09,03,11,32,17.40
2011,09,03,11,33,17.50
2011,09,03,11,34,17.50
2011,09,03,11,35,17.70
2011,09,03,11,36,17.70
2011,09,03,11,37,17.70
2011,09,03,11,38,17.70
2011,09,03,11,39,17.80
2011,09,03,11,40,17.80
2011,09,03,11,41,17.80
2011,09,03,11,42,17.80
2011,09,03,11,43,17.70
2011,09,03,11,44,17.70
2011,09,03,11,45,17.80
2011,09,03,11,46,17.80
2011,09,03,11,47,17.80
2011,09,03,11,48,17.80
2011,09,03,11,49,17.80
2011,09,03,11,50,17.70
2011,09,03,11,51,17.70
2011,09,03,11,52,17.60
2011,09,03,11,53,17.50
2011,09,03,11,54,17.40
2011,09,03,11,55,17.40
2011,09,03,11,56,17.40
2011,09,03,11,57,17.30
2011,09,03,11,58,17.30
2011,09,03,11,59,17.30
2011,09,03,12,00,17.30
2011,09,03,12,01,17.30
2011,09,03,12,02,17.30
2011,09,03,12,03,17.20
2011,09,03,12,04,17.20
2011,09,03,12,05,17.10
2011,09,03,12,06,17.10
2011,09,03,12,07,17.10
2011,09,03,12,08,17.00
2011,09,03,12,09,17.00
2011,09,03,12,10,17.00
2011,09,03,12,11,17.00
2011,09,03,12,12,17.00
2011,09,03,12,13,17.10
2011,09,03,12,14,17.10
2011,09,03,12,15,17.20
2011,09,03,12,16,17.20
2011,09,03,12,17,17.30
2011,09,03,12,18,17.30
2011,09,03,12,19,17.30
2011,09,03,12,20,17.30
2011,09,03,12,21,17.30
2011,09,03,12,22,17.40
2011,09,03,12,23,17.30
2011,09,03,12,24,17.30
2011,09,03,12,25,17.40
2011,09,03,12,26,17.40
2011,09,03,12,27,17.50
2011,09,03,12,28,17.50
2011,09,03,12,29,17.50
2011,09,03,12,30,17.50
2011,09,03,12,31,17.60
2011,09,03,12,32,17.70
2011,09,03,12,33,17.80
2011,09,03,12,34,17.80
2011,09,03,12,35,17.80
2011,09,03,12,36,17.90
2011,09,03,12,37,17.90
2011,09,03,12,38,17.90
2011,09,03,12,39,17.90
2011,09,03,12,40,17.90
2011,09,03,12,41,17.90
2011,09,03,12,42,17.90
2011,09,03,12,43,17.90
2011,09,03,12,44,17.90
2011,09,03,12,45,17.90
2011,09,03,12,46,18.00
2011,09,03,12,47,18.10
2011,09,03,12,48,18.10
2011,09,03,12,49,18.20
2011,09,03,12,50,18.20
2011,09,03,12,51,18.20
2011,09,03,12,52,18.20
2011,09,03,12,53,18.30
2011,09,03,12,54,18.30
2011,09,03,12,55,18.30
2011,09,03,12,56,18.30
2011,09,03,12,57,18.30
2011,09,03,12,58,18.30
2011,09,03,12,59,18.40
2011,09,03,13,00,18.40
2011,09,03,13,01,18.50
2011,09,03,13,02,18.60
2011,09,03,13,03,18.60
2011,09,03,13,04,18.70
2011,09,03,13,05,18.80
2011,09,03,13,06,18.80
2011,09,03,13,07,18.90
2011,09,03,13,08,18.90
2011,09,03,13,09,18.90
2011,09,03,13,10,18.90
2011,09,03,13,11,18.90
2011,09,03,13,12,18.90
2011,09,03,13,13,18.90
2011,09,03,13,14,18.90
2011,09,03,13,15,18.90
2011,09,03,13,16,18.90
2011,09,03,13,17,19.00
2011,09,03,13,18,19.10
2011,09,03,13,19,19.10
2011,09,03,13,20,19.10
2011,09,03,13,21,19.20
2011,09,03,13,22,19.30
2011,09,03,13,23,19.20
2011,09,03,13,24,19.20
2011,09,03,13,25,19.20
2011,09,03,13,26,19.20
2011,09,03,13,27,19.20
2011,09,03,13,28,19.30
2011,09,03,13,29,19.30
2011,09,03,13,30,19.40
2011,09,03,13,31,19.30
2011,09,03,13,32,19.30
2011,09,03,13,33,19.40
2011,09,03,13,34,19.40
2011,09,03,13,35,19.50
2011,09,03,13,36,19.50
2011,09,03,13,37,19.60
2011,09,03,13,38,19.50
2011,09,03,13,39,19.50
2011,09,03,13,40,19.50
2011,09,03,13,41,19.50
2011,09,03,13,42,19.50
2011,09,03,13,43,19.50
2011,09,03,13,44,19.50
2011,09,03,13,45,19.60
2011,09,03,13,46,19.60
2011,09,03,13,47,19.70
2011,09,03,13,48,19.90
2011,09,03,13,49,19.90
2011,09,03,13,50,19.90
2011,09,03,13,51,19.90
2011,09,03,13,52,19.90
2011,09,03,13,53,19.90
2011,09,03,13,54,19.90
2011,09,03,13,55,20.00
2011,09,03,13,56,20.10
2011,09,03,13,57,20.20
2011,09,03,13,58,20.20
2011,09,03,13,59,20.10
2011,09,03,14,00,20.10
2011,09,03,14,01,20.20
2011,09,03,14,02,20.10
2011,09,03,14,03,20.10
2011,09,03,14,04,20.10
2011,09,03,14,05,20.10
2011,09,03,14,06,20.10
2011,09,03,14,07,20.10
2011,09,03,14,08,20.10
2011,09,03,14,09,20.10
2011,09,03,14,10,20.20
2011,09,03,14,11,20.20
2011,09,03,14,12,20.10
2011,09,03,14,13,20.10
2011,09,03,14,14,20.00
2011,09,03,14,15,20.10
2011,09,03,14,16,20.10
2011,09,03,14,17,20.10
2011,09,03,14,18,20.10
2011,09,03,14,19,20.10
2011,09,03,14,20,20.10
2011,09,03,14,21,20.20
2011,09,03,14,22,20.20
2011,09,03,14,23,20.20
2011,09,03,14,24,20.20
2011,09,03,14,25,20.20
2011,09,03,14,26,20.20
2011,09,03,14,27,20.40
2011,09,03,14,28,20.50
2011,09,03,14,29,20.50
2011,09,03,14,30,20.50
2011,09,03,14,31,20.60
2011,09,03,14,32,20.60
2011,09,03,14,33,20.70
2011,09,03,14,34,20.80
2011,09,03,14,35,20.70
2011,09,03,14,36,20.70
2011,09,03,14,37,20.70
2011,09,03,14,38,20.70
2011,09,03,14,39,20.70
2011,09,03,14,40,20.60
2011,09,03,14,41,20.70
2011,09,03,14,42,20.70
2011,09,03,14,43,20.80
2011,09,03,14,44,20.90
2011,09,03,14,45,20.90
2011,09,03,14,46,20.90
2011,09,03,14,47,20.80
2011,09,03,14,48,20.70
2011,09,03,14,49,20.70
2011,09,03,14,50,20.80
2011,09,03,14,51,20.80
2011,09,03,14,52,20.80
2011,09,03,14,53,20.90
2011,09,03,14,54,20.90
2011,09,03,14,55,20.80
2011,09,03,14,56,20.80
2011,09,03,14,57,20.70
2011,09,03,14,58,20.70
2011,09,03,14,59,20.80
2011,09,03,15,00,20.80
2011,09,03,15,01,20.80
2011,09,03,15,02,20.80
2011,09,03,15,03,20.80
2011,09,03,15,04,20.80
2011,09,03,15,05,20.90
2011,09,03,15,06,20.90
2011,09,03,15,07,20.80
2011,09,03,15,08,20.80
2011,09,03,15,09,20.90
2011,09,03,15,10,20.90
2011,09,03,15,11,20.90
2011,09,03,15,12,20.90
2011,09,03,15,13,20.90
2011,09,03,15,14,20.90
2011,09,03,15,15,20.90
2011,09,03,15,16,20.90
2011,09,03,15,17,20.90
2011,09,03,15,18,20.90
2011,09,03,15,19,20.90
2011,09,03,15,20,21.00
2011,09,03,15,21,21.00
2011,09,03,15,22,21.00
2011,09,03,15,23,21.00
2011,09,03,15,24,20.90
2011,09,03,15,25,21.00
2011,09,03,15,26,20.90
2011,09,03,15,27,20.90
2011,09,03,15,28,20.90
2011,09,03,15,29,20.90
2011,09,03,15,30,20.90
2011,09,03,15,31,20.90
2011,09,03,15,32,20.90
2011,09,03,15,33,20.90
2011,09,03,15,34,21.00
2011,09,03,15,35,21.00
2011,09,03,15,36,20.90
2011,09,03,15,37,20.90
2011,09,03,15,38,20.90
2011,09,03,15,39,20.90
2011,09,03,15,40,21.00
2011,09,03,15,41,21.00
2011,09,03,15,42,21.00
2011,09,03,15,43,21.00
2011,09,03,15,44,20.90
2011,09,03,15,45,20.90
2011,09,03,15,46,20.90
2011,09,03,15,47,20.90
2011,09,03,15,48,20.90
2011,09,03,15,49,20.80
2011,09,03,15,50,20.80
2011,09,03,15,51,20.80
2011,09,03,15,52,20.80
2011,09,03,15,53,20.80
2011,09,03,15,54,20.90
2011,09,03,15,55,20.90
2011,09,03,15,56,21.00
2011,09,03,15,57,21.00
2011,09,03,15,58,21.00
2011,09,03,15,59,21.10
2011,09,03,16,00,21.10
2011,09,03,16,01,21.10
2011,09,03,16,02,21.20
2011,09,03,16,03,21.20
2011,09,03,16,04,21.20
2011,09,03,16,05,21.20
2011,09,03,16,06,21.30
2011,09,03,16,07,21.30
2011,09,03,16,08,21.40
2011,09,03,16,09,21.40
2011,09,03,16,10,21.50
2011,09,03,16,11,21.50
2011,09,03,16,12,21.40
2011,09,03,16,13,21.40
2011,09,03,16,14,21.40
2011,09,03,16,15,21.40
2011,09,03,16,16,21.50
2011,09,03,16,17,21.50
2011,09,03,16,18,21.60
2011,09,03,16,19,21.60
2011,09,03,16,20,21.50
2011,09,03,16,21,21.40
2011,09,03,16,22,21.40
2011,09,03,16,23,21.30
2011,09,03,16,24,21.30
2011,09,03,16,25,21.30
2011,09,03,16,26,21.40
2011,09,03,16,27,21.40
2011,09,03,16,28,21.40
2011,09,03,16,29,21.40
2011,09,03,16,30,21.40
2011,09,03,16,31,21.40
2011,09,03,16,32,21.30
2011,09,03,16,33,21.40
2011,09,03,16,34,21.40
2011,09,03,16,35,21.40
2011,09,03,16,36,21.60
2011,09,03,16,37,21.60
2011,09,03,16,38,21.60
2011,09,03,16,39,21.60
2011,09,03,16,40,21.60
2011,09,03,16,41,21.70
2011,09,03,16,42,21.70
2011,09,03,16,43,21.60
2011,09,03,16,44,21.60
2011,09,03,16,45,21.70
2011,09,03,16,46,21.80
2011,09,03,16,47,21.80
2011,09,03,16,48,21.80
2011,09,03,16,49,21.80
2011,09,03,16,50,21.80
2011,09,03,16,51,21.80
2011,09,03,16,52,21.80
2011,09,03,16,53,21.80
2011,09,03,16,54,21.80
2011,09,03,16,55,21.80
2011,09,03,16,56,21.70
2011,09,03,16,57,21.70
2011,09,03,16,58,21.70
2011,09,03,16,59,21.70
2011,09,03,17,00,21.60
2011,09,03,17,01,21.60
2011,09,03,17,02,21.60
2011,09,03,17,03,21.50
2011,09,03,17,04,21.40
2011,09,03,17,05,21.30
2011,09,03,17,06,21.30
2011,09,03,17,07,21.40
2011,09,03,17,08,21.40
2011,09,03,17,09,21.50
2011,09,03,17,10,21.60
2011,09,03,17,11,21.60
2011,09,03,17,12,21.70
2011,09,03,17,13,21.70
2011,09,03,17,14,21.80
2011,09,03,17,15,21.80
2011,09,03,17,16,21.80
2011,09,03,17,17,21.80
2011,09,03,17,18,21.80
2011,09,03,17,19,21.80